Regional Weather Roundup
Issued by NWS

Home | Current Version | Previous Version | Graphics & Text | Print | Product List | Glossary On
Versions: 1 2 3 4 5 6 7 8 9 10 11 12 13 14 15 16 17 18 19 20 21 22 23 24 25 26 27
000
ASUS45 KPSR 282010
RWRAZ

ARIZONA HOURLY REGIONAL WEATHER ROUNDUP
NATIONAL WEATHER SERVICE PHOENIX AZ
100 PM MST TUE FEB 28 2017

NOTE: FAIR INDICATES FEW OR NO CLOUDS BELOW 12,000 FEET WITH NO
SIGNIFICANT WEATHER AND/OR OBSTRUCTIONS TO VISIBILITY.

AZZ001>003-036-282100-
NORTHWEST ARIZONA

CITY           SKY/WX    TMP DP  RH WIND       PRES   REMARKS
BULLHEAD CITY  SUNNY     63  37  39 N10       30.04S
KINGMAN        MOSUNNY   52  21  29 CALM      30.02S
$$

AZZ004>008-015-016-018-282100-
NORTH CENTRAL ARIZONA

CITY           SKY/WX    TMP DP  RH WIND       PRES   REMARKS
GRAND CANYON   CLOUDY    33  27  78 VRB7G17   29.97S WCI  27
WILLIAMS       MIX PCPN  32  28  86 W9G16     29.99S WCI  24
PRESCOTT       PTSUNNY   44  34  67 W15G25    30.01S
FLAGSTAFF      LGT SNOW  33  31  92 W9        29.96R VSB 1   WCI  25
PAYSON         DRIZZLE   43  37  81 S9G15     30.02S
PAGE           PTSUNNY   48  20  32 W16G25    29.90S
$$

AZZ009>014-017-282100-
NORTHEAST ARIZONA

CITY           SKY/WX    TMP DP  RH WIND       PRES   REMARKS
WINSLOW        LGT RAIN  45  39  79 N13       29.94R
SAINT JOHNS    PTSUNNY   45  36  70 W22G31    29.94F
WINDOW ROCK    PTSUNNY   36  27  69 W18G28    29.91S WCI  26
SHOW LOW       CLOUDY    36  32  87 SW17G23   29.98F WCI  25
$$

AZZ023-282100-
GREATER PHOENIX AREA

CITY           SKY/WX    TMP DP  RH WIND       PRES   REMARKS
PHOENIX        PTSUNNY   62  46  55 NW16      29.99F
BUCKEYE        MOSUNNY   63  45  51 W16       30.02S
GLENDALE       PTSUNNY   63  46  55 SW12G20   30.02S
LUKE AFB       MOSUNNY   63  47  56 SW12      30.00S
DEER VALLEY    CLOUDY    56  48  74 W5        30.00S
SCOTTSDALE     CLOUDY    56  46  69 W8        30.02R
MESA-FALCON      N/A    N/A N/A N/A W23G29    29.98R
MESA-GATEWAY   PTSUNNY   61  48  63 SW16      30.02R
CHANDLER       MOSUNNY   64  48  55 SW10      30.00S
$$

AZZ027-028-282100-
SOUTHWEST MARICOPA COUNTY AND PINAL COUNTY

CITY           SKY/WX    TMP DP  RH WIND       PRES   REMARKS
CASA GRANDE    NOT AVBL
GILA BEND      MOSUNNY   65  46  50 W16G22    30.02S
$$

AZZ503-504-507>509-282100-
SOUTHEAST ARIZONA

CITY           SKY/WX    TMP DP  RH WIND       PRES   REMARKS
TUCSON         LGT RAIN  60  41  49 NW20G39   30.02F
DAVIS-MONTHAN  LGT RAIN  61  41  48 NW18G25   30.02S
RYAN FIELD     PTSUNNY   64  37  36 W20G28    30.03S
NOGALES        PTSUNNY   62  37  39 SW9       30.05F
SIERRA VISTA   MOSUNNY   59  34  38 W17G24    30.05F
DOUGLAS        SUNNY     65  27  23 W25G35    30.02R
SAFFORD        CLOUDY    60  39  45 NW23G40   29.95R
$$

AZZ020-021-025-026-031-282100-
SOUTHWEST ARIZONA

CITY           SKY/WX    TMP DP  RH WIND       PRES   REMARKS
YUMA           MOSUNNY   65  45  48 NW13G22   30.05F
$$

CAZ031-033-041-043-047-048-061-282100-
SOUTHERN CALIFORNIA

CITY           SKY/WX    TMP DP  RH WIND       PRES   REMARKS
DOWNTOWN L.A.  SUNNY     64  33  31 E3        30.10S
L.A. AIRPORT   MOSUNNY   61  40  45 W13       30.12R
SAN DIEGO      MOSUNNY   59  42  53 S9        30.15F
BURBANK        SUNNY     60  27  28 CALM      30.10S
ONTARIO        MOSUNNY   58  38  47 S7        30.10S
RIVERSIDE      MOSUNNY   59  41  51 W6        30.10S
PALM SPRINGS   SUNNY     65  45  48 VRB7      30.06F
EL CENTRO NAS  MOSUNNY   65  37  35 W8G16     30.07F
IMPERIAL       SUNNY     65  42  43 VRB6G16   30.05F
BLYTHE         SUNNY     64  40  41 N14       30.05S
NEEDLES        SUNNY     64  37  36 N13       30.04S
$$

NVZ020-UTZ003-282100-
SOUTHERN NEVADA-UTAH

CITY           SKY/WX    TMP DP  RH WIND       PRES   REMARKS
LAS VEGAS      MOSUNNY   58  12  16 N12G20    30.02R
SALT LAKE CITY PTSUNNY   34  18  52 NW8       30.00R WCI  27
$$

NMZ009-TXZ055-282100-
NEW MEXICO-WEST TEXAS

CITY           SKY/WX    TMP DP  RH WIND       PRES   REMARKS
ALBUQUERQUE    MOSUNNY   53  29  39 W37G52    29.80R
EL PASO        BLWGDUST  73   2   6 W41G52    29.93R VSB 1
$$


........................KEY........................
SKY/WX - SKY CONDITION/WEATHER
TMP    - TEMPERATURE IN FAHRENHEIT
DP     - DEW POINT IN FAHRENHEIT
RH     - RELATIVE HUMIDITY IN PERCENT
WIND   - DIRECTION AND SPEED IN MILES PER HOUR (MPH)
VRB    - VARIABLE WIND DIRECTION
PRES   - MEAN SEA LEVEL PRESSURE IN INCHES OF MERCURY
         F - FALLING PRESSURE   R - RISING PRESSURE
         S - STEADY PRESSURE
VSB    - VISIBILITY IN MILES
HX     - HEAT INDEX IN FAHRENHEIT
WCI    - WIND CHILL INDEX IN FAHRENHEIT
TC     - TEMPERATURE IN CELSIUS WHICH IS ALSO KNOWN AS
         TEMPERATURE IN CENTIGRADE
AFB    - AIR FORCE BASE
         LUKE AFB IS LUKE AIR FORCE BASE
         DAVIS-MONTHAN IS DAVIS-MONTHAN AIR FORCE BASE
NAS    - NAVAL AIR STATION
         EL CENTRO NAS IS EL CENTRO NAVAL AIR STATION
N/A    - NOT AVAILABLE





USA.gov is the U.S. government's official web portal to all federal, state and local government web resources and services.